Home > Weather > Davenport > Past weeks

Flag for U.S.A. Weather for the Past 2 Weeks in Davenport, Iowa, U.S.A.

Now
15 °F

Clear.


Feels Like: 3 °F
Forecast: 12 / 24 °F
Wind: 9 mph from East

Location: Davenport Municipal Airport

Current Time: Feb 13, 2016 at 7:54:55 PM

Latest Report: Feb 13, 2016 at 6:52 PM


Visibility: 10 mi

Pressure: 30.52 "Hg

Humidity: 42%

Dew point: -4 °F

Location of DavenportLocation

Historic Weather in Davenport — Graph

°F

Davenport Temperature Yesterday

Maximum temperature yesterday: 23 °F (at 11:04 AM)
Minimum temperature yesterday: 7 °F (at 11:52 PM)
Average temperature yesterday: 17 °F

High & Low Weather Summary for the Past Weeks

 TemperatureHumidityPressure
High45 °F (Jan 30, 1:52 PM)100% (Feb 1, 9:52 AM)30.71 "Hg (Feb 1, 9:52 AM)
Low1 °F (Feb 13, 4:52 AM)32% (Feb 13, 2:52 PM)29.47 "Hg (Feb 3, 4:00 AM)
Average26 °F74%30.04 "Hg
* Reported Jan 29 5:52 PM — Feb 13 5:52 PM, Davenport, Weather by CustomWeather, © 2016

Note: Actual official high and low records may vary slightly from our data, if they occured in-between our weather recording intervals... More about our weather records

Advertising

Davenport Weather History for the Previous 24 Hours

 ConditionsComfort  
Time TempWeatherWind HumidityBarometerVisibility
5:52 PM
Sat, Feb 13
16 °FClear.3 mph37%30.49 "Hg10 mi
4:52 PM16 °FSunny.5 mph35%30.55 "Hg10 mi
3:52 PM17 °FSunny.No wind32%30.58 "Hg10 mi
2:52 PM18 °FSunny.3 mph32%30.59 "Hg10 mi
1:52 PM17 °FSunny.6 mph33%30.61 "Hg10 mi
12:52 PM16 °FSunny.3 mph35%30.64 "Hg10 mi
11:52 AM13 °FSunny.N/A40%30.67 "Hg10 mi
10:52 AM10 °FSunny.6 mph43%30.69 "Hg10 mi
9:52 AM9 °FSunny.N/A45%30.70 "Hg10 mi
8:52 AM6 °FSunny.7 mph57%30.71 "Hg10 mi
7:52 AM3 °FSunny.8 mph62%30.69 "Hg10 mi
6:52 AM2 °FFrigid.7 mph72%30.68 "Hg10 mi
4:52 AM1 °FClear.6 mph72%30.67 "Hg10 mi
3:52 AM3 °FClear.6 mph66%30.65 "Hg10 mi
2:52 AM3 °FClear.7 mph69%30.65 "Hg10 mi
1:52 AM5 °FClear.8 mph63%30.63 "Hg10 mi
12:52 AM6 °FClear.12 mph60%30.62 "Hg10 mi
11:52 PM
Fri, Feb 12
7 °FClear.12 mph60%30.60 "Hg10 mi
10:52 PM8 °FClear.12 mph57%30.59 "Hg10 mi
9:52 PM8 °FClear.18 mph60%30.56 "Hg10 mi
8:52 PM9 °FClear.17 mph61%30.55 "Hg10 mi
7:52 PM10 °FClear.17 mph58%30.52 "Hg10 mi
Weather by CustomWeather, © 2016

See weather overviewHow to use our weather pages